Time,TemperatureF,DewpointF,PressureIn,WindDirection,WindDirectionDegrees,WindSpeedMPH,WindSpeedGustMPH,Humidity,HourlyPrecipIn,Conditions,Clouds,dailyrainin,SoftwareType,DateUTC
2013-07-01 00:01:00,70.0,70.0,30.08,SW,225,4.0,10.0,100,0.00,,,0.00,Weather View 32 v70,2013-07-01 04:01:00,
2013-07-01 00:02:00,70.0,70.0,30.08,SW,225,2.0,10.0,100,0.00,,,0.00,Weather View 32 v70,2013-07-01 04:02:00,
2013-07-01 00:07:00,70.0,70.0,30.08,SW,225,2.0,10.0,100,0.00,,,0.00,Weather View 32 v70,2013-07-01 04:07:00,
2013-07-01 00:12:00,70.0,70.0,30.09,SSW,202,3.0,9.0,100,0.00,,,0.00,Weather View 32 v70,2013-07-01 04:12:00,
2013-07-01 00:17:00,70.0,70.0,30.09,SSW,202,2.0,9.0,100,0.00,,,0.00,Weather View 32 v70,2013-07-01 04:17:00,
2013-07-01 00:22:00,70.0,70.0,30.09,SSW,202,1.0,9.0,100,0.00,,,0.00,Weather View 32 v70,2013-07-01 04:22:00,
2013-07-01 00:27:00,70.0,70.0,30.09,SSW,202,2.0,9.0,100,0.00,,,0.00,Weather View 32 v70,2013-07-01 04:27:00,
2013-07-01 00:32:00,70.0,70.0,30.09,SSW,202,4.0,7.0,100,0.00,,,0.00,Weather View 32 v70,2013-07-01 04:32:00,
2013-07-01 00:37:00,70.0,70.0,30.09,SSW,202,3.0,6.0,100,0.00,,,0.00,Weather View 32 v70,2013-07-01 04:37:00,
2013-07-01 00:42:00,70.0,70.0,30.09,SSW,202,3.0,7.0,100,0.00,,,0.00,Weather View 32 v70,2013-07-01 04:42:00,
2013-07-01 00:47:00,70.0,70.0,30.09,SSW,202,4.0,7.0,100,0.00,,,0.00,Weather View 32 v70,2013-07-01 04:47:00,
2013-07-01 00:52:00,70.0,70.0,30.09,SSW,202,2.0,7.0,100,0.00,,,0.00,Weather View 32 v70,2013-07-01 04:52:00,
2013-07-01 00:57:00,70.0,70.0,30.09,SW,225,2.0,7.0,100,0.00,,,0.00,Weather View 32 v70,2013-07-01 04:57:00,
2013-07-01 01:02:00,71.0,71.0,30.09,SSW,202,4.0,7.0,100,0.00,,,0.00,Weather View 32 v70,2013-07-01 05:02:00,
2013-07-01 01:07:00,70.0,70.0,30.09,SSW,202,3.0,7.0,100,0.00,,,0.00,Weather View 32 v70,2013-07-01 05:07:00,
2013-07-01 01:12:00,70.0,70.0,30.09,SSW,202,2.0,7.0,100,0.00,,,0.00,Weather View 32 v70,2013-07-01 05:12:00,
2013-07-01 01:17:00,70.0,70.0,30.09,SSW,202,2.0,7.0,100,0.00,,,0.00,Weather View 32 v70,2013-07-01 05:17:00,
2013-07-01 01:22:00,71.0,71.0,30.09,SSW,202,1.0,7.0,100,0.00,,,0.00,Weather View 32 v70,2013-07-01 05:22:00,
2013-07-01 01:27:00,70.0,70.0,30.09,SSW,202,3.0,7.0,100,0.00,,,0.00,Weather View 32 v70,2013-07-01 05:27:00,
2013-07-01 01:32:00,70.0,70.0,30.09,SSW,202,3.0,7.0,100,0.00,,,0.00,Weather View 32 v70,2013-07-01 05:32:00,
2013-07-01 01:37:00,70.0,70.0,30.09,SSW,202,1.0,7.0,100,0.00,,,0.00,Weather View 32 v70,2013-07-01 05:37:00,
2013-07-01 01:42:00,70.0,70.0,30.10,SSW,202,2.0,6.0,100,0.00,,,0.00,Weather View 32 v70,2013-07-01 05:42:00,
2013-07-01 01:47:00,70.0,70.0,30.10,WSW,247,3.0,6.0,100,0.00,,,0.00,Weather View 32 v70,2013-07-01 05:47:00,
2013-07-01 01:52:00,70.0,70.0,30.10,SW,225,2.0,6.0,100,0.00,,,0.00,Weather View 32 v70,2013-07-01 05:52:00,
2013-07-01 01:57:00,70.0,70.0,30.10,SW,225,2.0,6.0,100,0.00,,,0.00,Weather View 32 v70,2013-07-01 05:57:00,
2013-07-01 02:02:00,70.0,70.0,30.10,SW,225,2.0,6.0,100,0.00,,,0.00,Weather View 32 v70,2013-07-01 06:02:00,
2013-07-01 02:07:00,70.0,70.0,30.10,SW,225,0.0,6.0,100,0.00,,,0.00,Weather View 32 v70,2013-07-01 06:07:00,
2013-07-01 02:12:00,70.0,70.0,30.10,SW,225,0.0,6.0,100,0.00,,,0.00,Weather View 32 v70,2013-07-01 06:12:00,
2013-07-01 02:17:00,70.0,70.0,30.10,SW,225,1.0,6.0,100,0.00,,,0.00,Weather View 32 v70,2013-07-01 06:17:00,
2013-07-01 02:22:00,70.0,70.0,30.10,SW,225,1.0,6.0,100,0.00,,,0.00,Weather View 32 v70,2013-07-01 06:22:00,
2013-07-01 02:27:00,70.0,70.0,30.10,SW,225,2.0,6.0,100,0.00,,,0.00,Weather View 32 v70,2013-07-01 06:27:00,
2013-07-01 02:32:00,70.0,70.0,30.09,WSW,247,3.0,6.0,100,0.00,,,0.00,Weather View 32 v70,2013-07-01 06:32:00,
2013-07-01 02:37:00,70.0,70.0,30.09,WSW,247,0.0,6.0,100,0.00,,,0.00,Weather View 32 v70,2013-07-01 06:37:00,
2013-07-01 02:42:00,70.0,70.0,30.09,WSW,247,0.0,6.0,100,0.00,,,0.00,Weather View 32 v70,2013-07-01 06:42:00,
2013-07-01 02:47:00,70.0,70.0,30.09,WSW,247,0.0,5.0,100,0.00,,,0.00,Weather View 32 v70,2013-07-01 06:47:00,
2013-07-01 02:52:00,70.0,70.0,30.09,WSW,247,0.0,5.0,100,0.00,,,0.00,Weather View 32 v70,2013-07-01 06:52:00,
2013-07-01 02:57:00,70.0,70.0,30.09,SE,135,3.0,5.0,100,0.00,,,0.00,Weather View 32 v70,2013-07-01 06:57:00,
2013-07-01 03:02:00,70.0,70.0,30.09,SE,135,1.0,5.0,100,0.00,,,0.00,Weather View 32 v70,2013-07-01 07:02:00,
2013-07-01 03:07:00,70.0,70.0,30.09,ESE,112,2.0,5.0,100,0.00,,,0.00,Weather View 32 v70,2013-07-01 07:07:00,
2013-07-01 03:12:00,70.0,70.0,30.09,ESE,112,2.0,5.0,100,0.00,,,0.00,Weather View 32 v70,2013-07-01 07:12:00,
2013-07-01 03:17:00,70.0,70.0,30.09,ENE,67,0.0,6.0,100,0.00,,,0.00,Weather View 32 v70,2013-07-01 07:17:00,
2013-07-01 03:22:00,70.0,70.0,30.09,SE,135,2.0,6.0,100,0.00,,,0.00,Weather View 32 v70,2013-07-01 07:22:00,
2013-07-01 03:27:00,70.0,70.0,30.09,ESE,112,2.0,6.0,100,0.00,,,0.00,Weather View 32 v70,2013-07-01 07:27:00,
2013-07-01 03:32:00,70.0,70.0,30.09,SSE,157,0.0,6.0,100,0.00,,,0.00,Weather View 32 v70,2013-07-01 07:32:00,
2013-07-01 03:37:00,70.0,70.0,30.09,ESE,112,1.0,6.0,100,0.00,,,0.00,Weather View 32 v70,2013-07-01 07:37:00,
2013-07-01 03:42:00,70.0,70.0,30.09,SE,135,2.0,6.0,100,0.00,,,0.00,Weather View 32 v70,2013-07-01 07:42:00,
2013-07-01 03:47:00,70.0,70.0,30.09,ESE,112,0.0,6.0,100,0.00,,,0.00,Weather View 32 v70,2013-07-01 07:47:00,
2013-07-01 03:52:00,70.0,70.0,30.09,ESE,112,1.0,6.0,100,0.00,,,0.00,Weather View 32 v70,2013-07-01 07:52:00,
2013-07-01 03:57:00,70.0,70.0,30.09,ESE,112,4.0,6.0,100,0.00,,,0.00,Weather View 32 v70,2013-07-01 07:57:00,
2013-07-01 04:02:00,70.0,70.0,30.09,ESE,112,4.0,6.0,100,0.00,,,0.00,Weather View 32 v70,2013-07-01 08:02:00,
2013-07-01 04:07:00,70.0,70.0,30.09,ESE,112,0.0,6.0,100,0.00,,,0.00,Weather View 32 v70,2013-07-01 08:07:00,
2013-07-01 04:12:00,70.0,70.0,30.09,ESE,112,4.0,6.0,100,0.00,,,0.00,Weather View 32 v70,2013-07-01 08:12:00,
2013-07-01 04:17:00,70.0,70.0,30.09,ESE,112,0.0,6.0,100,0.00,,,0.00,Weather View 32 v70,2013-07-01 08:17:00,
2013-07-01 04:22:00,70.0,70.0,30.10,ESE,112,1.0,6.0,100,0.00,,,0.00,Weather View 32 v70,2013-07-01 08:22:00,
2013-07-01 04:27:00,70.0,70.0,30.10,ESE,112,2.0,6.0,100,0.00,,,0.00,Weather View 32 v70,2013-07-01 08:27:00,
2013-07-01 04:32:00,70.0,70.0,30.10,ESE,112,2.0,6.0,100,0.00,,,0.00,Weather View 32 v70,2013-07-01 08:32:00,
2013-07-01 04:37:00,70.0,70.0,30.10,ESE,112,3.0,6.0,100,0.00,,,0.00,Weather View 32 v70,2013-07-01 08:37:00,
2013-07-01 04:42:00,70.0,70.0,30.10,SE,135,0.0,6.0,100,0.00,,,0.00,Weather View 32 v70,2013-07-01 08:42:00,
2013-07-01 04:48:00,69.0,69.0,30.10,East,90,0.0,6.0,100,0.00,,,0.00,Weather View 32 v70,2013-07-01 08:48:00,
2013-07-01 04:53:00,70.0,70.0,30.09,SE,135,0.0,6.0,100,0.00,,,0.00,Weather View 32 v70,2013-07-01 08:53:00,
2013-07-01 04:58:00,69.0,69.0,30.09,SE,135,1.0,6.0,100,0.00,,,0.00,Weather View 32 v70,2013-07-01 08:58:00,
2013-07-01 05:03:00,70.0,70.0,30.10,ESE,112,2.0,7.0,100,0.00,,,0.00,Weather View 32 v70,2013-07-01 09:03:00,
2013-07-01 05:08:00,69.0,69.0,30.10,ESE,112,0.0,7.0,100,0.00,,,0.00,Weather View 32 v70,2013-07-01 09:08:00,
2013-07-01 05:13:00,69.0,69.0,30.10,ESE,112,0.0,7.0,100,0.00,,,0.00,Weather View 32 v70,2013-07-01 09:13:00,
2013-07-01 05:18:00,69.0,69.0,30.10,ESE,112,2.0,7.0,100,0.00,,,0.00,Weather View 32 v70,2013-07-01 09:18:00,
2013-07-01 05:23:00,69.0,69.0,30.10,ESE,112,3.0,7.0,100,0.00,,,0.00,Weather View 32 v70,2013-07-01 09:23:00,
2013-07-01 05:28:00,69.0,69.0,30.10,ESE,112,1.0,7.0,100,0.00,,,0.00,Weather View 32 v70,2013-07-01 09:28:00,
2013-07-01 05:33:00,69.0,69.0,30.11,SE,135,2.0,7.0,100,0.00,,,0.00,Weather View 32 v70,2013-07-01 09:33:00,
2013-07-01 05:38:00,69.0,69.0,30.11,SE,135,0.0,7.0,100,0.00,,,0.00,Weather View 32 v70,2013-07-01 09:38:00,
2013-07-01 05:43:00,69.0,69.0,30.11,SE,135,0.0,7.0,100,0.00,,,0.00,Weather View 32 v70,2013-07-01 09:43:00,
2013-07-01 05:48:00,69.0,69.0,30.11,SE,135,0.0,7.0,100,0.00,,,0.00,Weather View 32 v70,2013-07-01 09:48:00,
2013-07-01 05:53:00,69.0,69.0,30.12,SE,135,1.0,7.0,100,0.00,,,0.00,Weather View 32 v70,2013-07-01 09:53:00,
2013-07-01 05:58:00,69.0,69.0,30.12,SE,135,1.0,7.0,100,0.00,,,0.00,Weather View 32 v70,2013-07-01 09:58:00,
2013-07-01 06:03:00,69.0,69.0,30.12,ESE,112,2.0,6.0,100,0.00,,,0.00,Weather View 32 v70,2013-07-01 10:03:00,
2013-07-01 06:08:00,69.0,69.0,30.12,East,90,1.0,6.0,100,0.00,,,0.00,Weather View 32 v70,2013-07-01 10:08:00,
2013-07-01 06:13:00,69.0,69.0,30.12,SE,135,1.0,6.0,100,0.00,,,0.00,Weather View 32 v70,2013-07-01 10:13:00,
2013-07-01 06:18:00,69.0,69.0,30.12,SE,135,0.0,6.0,100,0.00,,,0.00,Weather View 32 v70,2013-07-01 10:18:00,
2013-07-01 06:23:00,70.0,70.0,30.11,ESE,112,0.0,6.0,100,0.00,,,0.00,Weather View 32 v70,2013-07-01 10:23:00,
2013-07-01 06:28:00,69.0,69.0,30.11,ESE,112,0.0,6.0,100,0.00,,,0.00,Weather View 32 v70,2013-07-01 10:28:00,
2013-07-01 06:33:00,69.0,69.0,30.12,ESE,112,0.0,6.0,100,0.00,,,0.00,Weather View 32 v70,2013-07-01 10:33:00,
2013-07-01 06:38:00,69.0,69.0,30.12,ESE,112,0.0,6.0,100,0.00,,,0.00,Weather View 32 v70,2013-07-01 10:38:00,
2013-07-01 06:43:00,69.0,69.0,30.12,ESE,112,0.0,6.0,100,0.00,,,0.00,Weather View 32 v70,2013-07-01 10:43:00,
2013-07-01 06:48:00,69.0,69.0,30.12,ESE,112,1.0,6.0,100,0.00,,,0.00,Weather View 32 v70,2013-07-01 10:48:00,
2013-07-01 06:53:00,69.0,69.0,30.12,SE,135,0.0,6.0,100,0.00,,,0.00,Weather View 32 v70,2013-07-01 10:53:00,
2013-07-01 06:58:00,69.0,69.0,30.12,SE,135,0.0,6.0,100,0.00,,,0.00,Weather View 32 v70,2013-07-01 10:58:00,
2013-07-01 07:03:00,69.0,69.0,30.12,SE,135,0.0,6.0,100,0.00,,,0.00,Weather View 32 v70,2013-07-01 11:03:00,
2013-07-01 07:08:00,68.0,68.0,30.12,SE,135,0.0,6.0,100,0.00,,,0.00,Weather View 32 v70,2013-07-01 11:08:00,
2013-07-01 07:13:00,68.0,68.0,30.13,SE,135,0.0,5.0,100,0.00,,,0.00,Weather View 32 v70,2013-07-01 11:13:00,
2013-07-01 07:18:00,68.0,68.0,30.13,SE,135,0.0,4.0,100,0.00,,,0.00,Weather View 32 v70,2013-07-01 11:18:00,
2013-07-01 07:23:00,68.0,68.0,30.13,SE,135,0.0,4.0,100,0.00,,,0.00,Weather View 32 v70,2013-07-01 11:23:00,
2013-07-01 07:28:00,68.0,68.0,30.13,SE,135,0.0,4.0,100,0.00,,,0.00,Weather View 32 v70,2013-07-01 11:28:00,
2013-07-01 07:33:00,68.0,68.0,30.13,SE,135,0.0,4.0,100,0.00,,,0.00,Weather View 32 v70,2013-07-01 11:33:00,
2013-07-01 07:38:00,68.0,68.0,30.13,SE,135,0.0,4.0,100,0.00,,,0.00,Weather View 32 v70,2013-07-01 11:38:00,
2013-07-01 07:43:00,68.0,68.0,30.14,SE,135,0.0,4.0,100,0.00,,,0.00,Weather View 32 v70,2013-07-01 11:43:00,
2013-07-01 07:48:00,68.0,68.0,30.14,SE,135,0.0,4.0,100,0.00,,,0.00,Weather View 32 v70,2013-07-01 11:48:00,
2013-07-01 07:53:00,68.0,68.0,30.14,SE,135,0.0,2.0,100,0.00,,,0.00,Weather View 32 v70,2013-07-01 11:53:00,
2013-07-01 07:58:00,68.0,68.0,30.14,SE,135,0.0,3.0,100,0.00,,,0.00,Weather View 32 v70,2013-07-01 11:58:00,
2013-07-01 08:03:00,68.0,68.0,30.14,SE,135,1.0,3.0,100,0.00,,,0.00,Weather View 32 v70,2013-07-01 12:03:00,
2013-07-01 08:08:00,68.0,68.0,30.14,ESE,112,2.0,7.0,100,0.00,,,0.00,Weather View 32 v70,2013-07-01 12:08:00,
2013-07-01 08:13:00,68.0,68.0,30.14,South,180,0.0,7.0,100,0.00,,,0.00,Weather View 32 v70,2013-07-01 12:13:00,
2013-07-01 08:18:00,68.0,68.0,30.14,South,180,0.0,7.0,100,0.00,,,0.00,Weather View 32 v70,2013-07-01 12:18:00,
2013-07-01 08:23:00,69.0,69.0,30.14,SSE,157,0.0,7.0,100,0.00,,,0.00,Weather View 32 v70,2013-07-01 12:23:00,
2013-07-01 08:28:00,69.0,69.0,30.14,SSE,157,0.0,7.0,100,0.00,,,0.00,Weather View 32 v70,2013-07-01 12:28:00,
2013-07-01 08:33:00,69.0,69.0,30.14,ESE,112,0.0,7.0,100,0.00,,,0.00,Weather View 32 v70,2013-07-01 12:33:00,
2013-07-01 08:38:00,69.0,69.0,30.14,ESE,112,0.0,7.0,100,0.00,,,0.00,Weather View 32 v70,2013-07-01 12:38:00,
2013-07-01 08:43:00,70.0,70.0,30.13,East,90,1.0,7.0,100,0.00,,,0.00,Weather View 32 v70,2013-07-01 12:43:00,
2013-07-01 08:48:00,70.0,70.0,30.13,South,180,1.0,7.0,100,0.00,,,0.00,Weather View 32 v70,2013-07-01 12:48:00,
2013-07-01 08:53:00,70.0,70.0,30.13,SE,135,0.0,7.0,100,0.00,,,0.00,Weather View 32 v70,2013-07-01 12:53:00,
2013-07-01 08:58:00,71.0,71.0,30.13,ESE,112,1.0,7.0,100,0.00,,,0.00,Weather View 32 v70,2013-07-01 12:58:00,
2013-07-01 09:03:00,71.0,71.0,30.13,SE,135,0.0,7.0,100,0.00,,,0.00,Weather View 32 v70,2013-07-01 13:03:00,
2013-07-01 09:08:00,71.0,71.0,30.13,ESE,112,4.0,7.0,100,0.00,,,0.00,Weather View 32 v70,2013-07-01 13:08:00,
2013-07-01 09:13:00,71.0,71.0,30.14,East,90,0.0,8.0,100,0.00,,,0.00,Weather View 32 v70,2013-07-01 13:13:00,
2013-07-01 09:18:00,71.0,71.0,30.14,SSE,157,2.0,8.0,100,0.00,,,0.00,Weather View 32 v70,2013-07-01 13:18:00,
2013-07-01 09:23:00,71.0,71.0,30.14,SE,135,3.0,8.0,100,0.00,,,0.00,Weather View 32 v70,2013-07-01 13:23:00,
2013-07-01 09:28:00,71.0,71.0,30.14,ESE,112,4.0,8.0,100,0.00,,,0.00,Weather View 32 v70,2013-07-01 13:28:00,
2013-07-01 09:33:00,71.0,71.0,30.14,ESE,112,2.0,8.0,100,0.00,,,0.00,Weather View 32 v70,2013-07-01 13:33:00,
2013-07-01 09:38:00,71.0,71.0,30.14,SE,135,1.0,8.0,100,0.00,,,0.00,Weather View 32 v70,2013-07-01 13:38:00,
2013-07-01 09:43:00,71.0,71.0,30.14,ESE,112,2.0,8.0,100,0.00,,,0.00,Weather View 32 v70,2013-07-01 13:43:00,
2013-07-01 09:48:00,71.0,71.0,30.14,ESE,112,0.0,8.0,100,0.00,,,0.00,Weather View 32 v70,2013-07-01 13:48:00,
2013-07-01 09:53:00,71.0,71.0,30.14,SE,135,2.0,8.0,100,0.00,,,0.00,Weather View 32 v70,2013-07-01 13:53:00,
2013-07-01 09:58:00,71.0,71.0,30.14,SW,225,2.0,8.0,100,0.00,,,0.00,Weather View 32 v70,2013-07-01 13:58:00,
2013-07-01 10:03:00,71.0,71.0,30.14,SW,225,1.0,8.0,100,0.00,,,0.00,Weather View 32 v70,2013-07-01 14:03:00,
2013-07-01 10:08:00,71.0,71.0,30.14,ESE,112,4.0,8.0,100,0.00,,,0.00,Weather View 32 v70,2013-07-01 14:08:00,
2013-07-01 10:13:00,71.0,71.0,30.14,SSE,157,2.0,8.0,100,0.00,,,0.00,Weather View 32 v70,2013-07-01 14:13:00,
2013-07-01 10:18:00,71.0,71.0,30.14,SE,135,0.0,8.0,100,0.00,,,0.00,Weather View 32 v70,2013-07-01 14:18:00,
2013-07-01 10:23:00,71.0,71.0,30.14,South,180,3.0,8.0,100,0.00,,,0.00,Weather View 32 v70,2013-07-01 14:23:00,
2013-07-01 10:28:00,71.0,71.0,30.14,ESE,112,1.0,8.0,100,0.00,,,0.00,Weather View 32 v70,2013-07-01 14:28:00,
2013-07-01 10:33:00,72.0,72.0,30.14,SSW,202,0.0,8.0,100,0.00,,,0.00,Weather View 32 v70,2013-07-01 14:33:00,
2013-07-01 10:38:00,72.0,72.0,30.14,SSE,157,0.0,8.0,100,0.00,,,0.00,Weather View 32 v70,2013-07-01 14:38:00,
2013-07-01 10:43:00,72.0,72.0,30.14,SE,135,0.0,8.0,100,0.00,,,0.00,Weather View 32 v70,2013-07-01 14:43:00,
2013-07-01 10:48:00,72.0,72.0,30.14,South,180,1.0,7.0,100,0.00,,,0.00,Weather View 32 v70,2013-07-01 14:48:00,
2013-07-01 10:53:00,72.0,72.0,30.14,South,180,2.0,7.0,100,0.00,,,0.00,Weather View 32 v70,2013-07-01 14:53:00,
2013-07-01 10:58:00,72.0,72.0,30.14,SSW,202,1.0,7.0,100,0.00,,,0.00,Weather View 32 v70,2013-07-01 14:58:00,
2013-07-01 11:03:00,72.0,72.0,30.14,SSW,202,2.0,7.0,100,0.00,,,0.00,Weather View 32 v70,2013-07-01 15:03:00,
2013-07-01 11:08:00,72.0,72.0,30.14,SSW,202,2.0,7.0,100,0.00,,,0.00,Weather View 32 v70,2013-07-01 15:08:00,
2013-07-01 11:13:00,72.0,72.0,30.15,SSW,202,2.0,7.0,100,0.00,,,0.00,Weather View 32 v70,2013-07-01 15:13:00,
2013-07-01 11:18:00,72.0,72.0,30.15,SW,225,3.0,7.0,100,0.00,,,0.00,Weather View 32 v70,2013-07-01 15:18:00,
2013-07-01 11:23:00,72.0,72.0,30.14,SSW,202,2.0,6.0,100,0.00,,,0.00,Weather View 32 v70,2013-07-01 15:23:00,
2013-07-01 11:28:00,73.0,73.0,30.14,SW,225,4.0,6.0,100,0.00,,,0.00,Weather View 32 v70,2013-07-01 15:28:00,
2013-07-01 11:33:00,73.0,73.0,30.14,SW,225,3.0,6.0,100,0.00,,,0.00,Weather View 32 v70,2013-07-01 15:33:00,
2013-07-01 11:38:00,73.0,73.0,30.14,SW,225,2.0,6.0,100,0.00,,,0.00,Weather View 32 v70,2013-07-01 15:38:00,
2013-07-01 11:43:00,73.0,73.0,30.14,SSW,202,2.0,6.0,100,0.00,,,0.00,Weather View 32 v70,2013-07-01 15:43:00,
2013-07-01 11:48:00,73.0,73.0,30.14,SSW,202,0.0,7.0,100,0.00,,,0.00,Weather View 32 v70,2013-07-01 15:48:00,
2013-07-01 11:54:00,73.0,73.0,30.15,SW,225,4.0,7.0,100,0.00,,,0.00,Weather View 32 v70,2013-07-01 15:54:00,
2013-07-01 11:59:00,73.0,73.0,30.15,SW,225,2.0,7.0,100,0.00,,,0.00,Weather View 32 v70,2013-07-01 15:59:00,
2013-07-01 12:04:00,73.0,73.0,30.15,SSW,202,2.0,7.0,100,0.00,,,0.00,Weather View 32 v70,2013-07-01 16:04:00,
2013-07-01 12:09:00,73.0,73.0,30.15,SSW,202,4.0,7.0,100,0.00,,,0.00,Weather View 32 v70,2013-07-01 16:09:00,
2013-07-01 12:14:00,73.0,73.0,30.15,SSW,202,3.0,7.0,100,0.00,,,0.00,Weather View 32 v70,2013-07-01 16:14:00,
2013-07-01 12:19:00,73.0,73.0,30.15,SSW,202,3.0,7.0,100,0.00,,,0.00,Weather View 32 v70,2013-07-01 16:19:00,
2013-07-01 12:24:00,74.0,74.0,30.14,SW,225,2.0,7.0,100,0.00,,,0.00,Weather View 32 v70,2013-07-01 16:24:00,
2013-07-01 12:29:00,74.0,73.7,30.14,SW,225,2.0,7.0,99,0.00,,,0.00,Weather View 32 v70,2013-07-01 16:29:00,
2013-07-01 12:34:00,74.0,73.4,30.13,SSW,202,3.0,7.0,98,0.00,,,0.00,Weather View 32 v70,2013-07-01 16:34:00,
2013-07-01 12:39:00,75.0,74.7,30.13,SSW,202,2.0,7.0,99,0.00,,,0.00,Weather View 32 v70,2013-07-01 16:39:00,
2013-07-01 12:44:00,75.0,74.4,30.13,SSW,202,2.0,7.0,98,0.00,,,0.00,Weather View 32 v70,2013-07-01 16:44:00,
2013-07-01 12:49:00,75.0,73.8,30.13,SW,225,3.0,7.0,96,0.00,,,0.00,Weather View 32 v70,2013-07-01 16:49:00,
2013-07-01 12:54:00,76.0,74.8,30.13,SSW,202,1.0,7.0,96,0.00,,,0.00,Weather View 32 v70,2013-07-01 16:54:00,
2013-07-01 12:59:00,76.0,74.5,30.13,SW,225,2.0,7.0,95,0.00,,,0.00,Weather View 32 v70,2013-07-01 16:59:00,
2013-07-01 13:05:00,76.0,74.5,30.13,SW,225,1.0,7.0,95,0.00,,,0.00,Weather View 32 v70,2013-07-01 17:05:00,
2013-07-01 13:10:00,76.0,74.1,30.13,SSW,202,0.0,7.0,94,0.00,,,0.00,Weather View 32 v70,2013-07-01 17:10:00,
2013-07-01 13:15:00,76.0,73.8,30.13,South,180,1.0,7.0,93,0.00,,,0.00,Weather View 32 v70,2013-07-01 17:15:00,
2013-07-01 13:20:00,76.0,73.8,30.13,SSW,202,4.0,7.0,93,0.00,,,0.00,Weather View 32 v70,2013-07-01 17:20:00,
2013-07-01 13:25:00,77.0,74.8,30.12,SW,225,1.0,7.0,93,0.00,,,0.00,Weather View 32 v70,2013-07-01 17:25:00,
2013-07-01 13:30:00,77.0,74.8,30.12,SSW,202,1.0,7.0,93,0.00,,,0.00,Weather View 32 v70,2013-07-01 17:30:00,
2013-07-01 13:35:00,77.0,73.8,30.13,SSW,202,3.0,7.0,90,0.00,,,0.00,Weather View 32 v70,2013-07-01 17:35:00,
2013-07-01 13:40:00,77.0,73.5,30.13,SE,135,2.0,7.0,89,0.00,,,0.00,Weather View 32 v70,2013-07-01 17:40:00,
2013-07-01 13:45:00,76.0,72.8,30.12,SSW,202,2.0,7.0,90,0.00,,,0.00,Weather View 32 v70,2013-07-01 17:45:00,
2013-07-01 13:50:00,76.0,73.5,30.12,SSW,202,4.0,7.0,92,0.00,,,0.00,Weather View 32 v70,2013-07-01 17:50:00,
2013-07-01 13:55:00,76.0,73.5,30.12,SSW,202,2.0,7.0,92,0.00,,,0.00,Weather View 32 v70,2013-07-01 17:55:00,
2013-07-01 14:00:00,76.0,73.5,30.12,SW,225,4.0,7.0,92,0.00,,,0.00,Weather View 32 v70,2013-07-01 18:00:00,
2013-07-01 14:05:00,77.0,74.2,30.12,SSW,202,2.0,7.0,91,0.00,,,0.00,Weather View 32 v70,2013-07-01 18:05:00,
2013-07-01 14:10:00,77.0,73.8,30.12,SSW,202,6.0,7.0,90,0.00,,,0.00,Weather View 32 v70,2013-07-01 18:10:00,
2013-07-01 14:15:00,77.0,73.8,30.12,SSW,202,5.0,7.0,90,0.00,,,0.00,Weather View 32 v70,2013-07-01 18:15:00,
2013-07-01 14:20:00,77.0,73.8,30.12,SSW,202,2.0,7.0,90,0.00,,,0.00,Weather View 32 v70,2013-07-01 18:20:00,
2013-07-01 14:25:00,77.0,73.8,30.12,SSW,202,1.0,7.0,90,0.00,,,0.00,Weather View 32 v70,2013-07-01 18:25:00,
2013-07-01 14:30:00,77.0,73.8,30.12,South,180,3.0,7.0,90,0.00,,,0.00,Weather View 32 v70,2013-07-01 18:30:00,
2013-07-01 14:35:00,76.0,72.8,30.12,SSW,202,3.0,8.0,90,0.00,,,0.00,Weather View 32 v70,2013-07-01 18:35:00,
2013-07-01 14:40:00,77.0,73.8,30.12,South,180,1.0,8.0,90,0.00,,,0.00,Weather View 32 v70,2013-07-01 18:40:00,
2013-07-01 14:45:00,77.0,73.2,30.12,SSW,202,2.0,8.0,88,0.00,,,0.00,Weather View 32 v70,2013-07-01 18:45:00,
2013-07-01 14:50:00,77.0,73.2,30.12,SSW,202,1.0,8.0,88,0.00,,,0.00,Weather View 32 v70,2013-07-01 18:50:00,
2013-07-01 14:55:00,77.0,73.2,30.12,SSW,202,1.0,8.0,88,0.00,,,0.00,Weather View 32 v70,2013-07-01 18:55:00,
2013-07-01 15:00:00,76.0,72.8,30.12,SW,225,3.0,8.0,90,0.00,,,0.00,Weather View 32 v70,2013-07-01 19:00:00,
2013-07-01 15:05:00,76.0,73.5,30.14,SW,225,2.0,8.0,92,0.00,,,0.00,Weather View 32 v70,2013-07-01 19:05:00,
2013-07-01 15:10:00,75.0,72.5,30.14,SSW,202,5.0,8.0,92,0.00,,,0.00,Weather View 32 v70,2013-07-01 19:10:00,
2013-07-01 15:15:00,74.0,72.2,30.14,SSW,202,5.0,10.0,94,0.00,,,0.00,Weather View 32 v70,2013-07-01 19:15:00,
2013-07-01 15:20:00,74.0,72.8,30.14,SSW,202,6.0,10.0,96,0.00,,,0.00,Weather View 32 v70,2013-07-01 19:20:00,
2013-07-01 15:25:00,73.0,71.8,30.14,WSW,247,6.0,10.0,96,0.01,,,0.01,Weather View 32 v70,2013-07-01 19:25:00,
2013-07-01 15:30:00,73.0,72.1,30.14,SSW,202,3.0,10.0,97,0.02,,,0.02,Weather View 32 v70,2013-07-01 19:30:00,
2013-07-01 15:35:00,72.0,71.7,30.15,SSW,202,3.0,10.0,99,0.05,,,0.05,Weather View 32 v70,2013-07-01 19:35:00,
2013-07-01 15:40:00,72.0,71.7,30.15,WSW,247,7.0,10.0,99,0.07,,,0.07,Weather View 32 v70,2013-07-01 19:40:00,
2013-07-01 15:45:00,71.0,71.0,30.16,WSW,247,7.0,10.0,100,0.09,,,0.09,Weather View 32 v70,2013-07-01 19:45:00,
2013-07-01 15:50:00,71.0,70.7,30.16,SSW,202,6.0,12.0,99,0.11,,,0.11,Weather View 32 v70,2013-07-01 19:50:00,
2013-07-01 15:55:00,70.0,70.0,30.18,SW,225,5.0,13.0,100,0.13,,,0.13,Weather View 32 v70,2013-07-01 19:55:00,
2013-07-01 16:00:00,70.0,70.0,30.18,SW,225,2.0,13.0,100,0.15,,,0.15,Weather View 32 v70,2013-07-01 20:00:00,
2013-07-01 16:05:00,70.0,70.0,30.17,WSW,247,4.0,13.0,100,0.17,,,0.17,Weather View 32 v70,2013-07-01 20:05:00,
2013-07-01 16:10:00,70.0,70.0,30.17,SSW,202,3.0,13.0,100,0.18,,,0.19,Weather View 32 v70,2013-07-01 20:10:00,
2013-07-01 16:15:00,70.0,70.0,30.18,SSW,202,2.0,13.0,100,0.20,,,0.20,Weather View 32 v70,2013-07-01 20:15:00,
2013-07-01 16:20:00,70.0,70.0,30.18,SW,225,2.0,13.0,100,0.22,,,0.22,Weather View 32 v70,2013-07-01 20:20:00,
2013-07-01 16:25:00,70.0,70.0,30.18,SW,225,1.0,13.0,100,0.22,,,0.23,Weather View 32 v70,2013-07-01 20:25:00,
2013-07-01 16:30:00,70.0,70.0,30.18,SW,225,2.0,13.0,100,0.23,,,0.25,Weather View 32 v70,2013-07-01 20:30:00,
2013-07-01 16:35:00,70.0,70.0,30.17,SW,225,1.0,13.0,100,0.21,,,0.26,Weather View 32 v70,2013-07-01 20:35:00,
2013-07-01 16:40:00,70.0,70.0,30.17,SW,225,0.0,13.0,100,0.20,,,0.27,Weather View 32 v70,2013-07-01 20:40:00,
2013-07-01 16:45:00,70.0,70.0,30.17,SW,225,0.0,13.0,100,0.19,,,0.28,Weather View 32 v70,2013-07-01 20:45:00,
2013-07-01 16:50:00,70.0,70.0,30.17,SW,225,0.0,13.0,100,0.19,,,0.30,Weather View 32 v70,2013-07-01 20:50:00,
2013-07-01 16:55:00,70.0,70.0,30.17,SW,225,0.0,9.0,100,0.17,,,0.31,Weather View 32 v70,2013-07-01 20:55:00,
2013-07-01 17:00:00,70.0,70.0,30.17,SW,225,0.0,9.0,100,0.17,,,0.32,Weather View 32 v70,2013-07-01 21:00:00,
2013-07-01 17:05:00,71.0,71.0,30.16,SW,225,0.0,7.0,100,0.15,,,0.33,Weather View 32 v70,2013-07-01 21:05:00,
2013-07-01 17:10:00,71.0,71.0,30.16,SW,225,0.0,6.0,100,0.15,,,0.34,Weather View 32 v70,2013-07-01 21:10:00,
2013-07-01 17:15:00,71.0,71.0,30.16,SW,225,0.0,6.0,100,0.14,,,0.35,Weather View 32 v70,2013-07-01 21:15:00,
2013-07-01 17:20:00,71.0,71.0,30.16,SW,225,0.0,5.0,100,0.13,,,0.35,Weather View 32 v70,2013-07-01 21:20:00,
2013-07-01 17:25:00,71.0,71.0,30.15,SW,225,0.0,5.0,100,0.13,,,0.36,Weather View 32 v70,2013-07-01 21:25:00,
2013-07-01 17:30:00,72.0,72.0,30.15,SW,225,0.0,5.0,100,0.12,,,0.37,Weather View 32 v70,2013-07-01 21:30:00,
2013-07-01 17:35:00,72.0,72.0,30.15,SE,135,3.0,5.0,100,0.12,,,0.38,Weather View 32 v70,2013-07-01 21:35:00,
2013-07-01 17:40:00,71.0,71.0,30.15,SE,135,0.0,5.0,100,-0.27,,,0.39,Weather View 32 v70,2013-07-01 21:40:00,
2013-07-01 17:45:00,71.0,71.0,30.16,SE,135,0.0,5.0,100,0.10,,,0.39,Weather View 32 v70,2013-07-01 21:45:00,
2013-07-01 17:51:00,71.0,71.0,30.16,ESE,112,3.0,6.0,100,0.10,,,0.40,Weather View 32 v70,2013-07-01 21:51:00,
2013-07-01 17:56:00,71.0,71.0,30.16,ESE,112,2.0,6.0,100,0.09,,,0.40,Weather View 32 v70,2013-07-01 21:56:00,
2013-07-01 18:01:00,70.0,70.0,30.16,SE,135,1.0,6.0,100,0.09,,,0.41,Weather View 32 v70,2013-07-01 22:01:00,
2013-07-01 18:06:00,71.0,71.0,30.15,SE,135,0.0,6.0,100,0.09,,,0.42,Weather View 32 v70,2013-07-01 22:06:00,
2013-07-01 18:11:00,71.0,71.0,30.15,SE,135,1.0,6.0,100,0.08,,,0.42,Weather View 32 v70,2013-07-01 22:11:00,
2013-07-01 18:16:00,71.0,71.0,30.16,SSW,202,1.0,6.0,100,0.07,,,0.42,Weather View 32 v70,2013-07-01 22:16:00,
2013-07-01 18:21:00,72.0,72.0,30.16,SSW,202,1.0,6.0,100,0.08,,,0.43,Weather View 32 v70,2013-07-01 22:21:00,
2013-07-01 18:26:00,72.0,72.0,30.16,ESE,112,0.0,6.0,100,0.07,,,0.43,Weather View 32 v70,2013-07-01 22:26:00,
2013-07-01 18:31:00,72.0,72.0,30.16,WSW,247,1.0,6.0,100,0.07,,,0.44,Weather View 32 v70,2013-07-01 22:31:00,
2013-07-01 18:36:00,71.0,71.0,30.16,ESE,112,5.0,6.0,100,0.06,,,0.44,Weather View 32 v70,2013-07-01 22:36:00,
2013-07-01 18:41:00,71.0,71.0,30.16,South,180,0.0,7.0,100,0.06,,,0.45,Weather View 32 v70,2013-07-01 22:41:00,
2013-07-01 18:46:00,71.0,71.0,30.17,SE,135,1.0,7.0,100,0.06,,,0.45,Weather View 32 v70,2013-07-01 22:46:00,
2013-07-01 18:51:00,71.0,71.0,30.17,SE,135,2.0,7.0,100,0.05,,,0.45,Weather View 32 v70,2013-07-01 22:51:00,
2013-07-01 18:56:00,71.0,71.0,30.18,SE,135,0.0,8.0,100,0.06,,,0.46,Weather View 32 v70,2013-07-01 22:56:00,
2013-07-01 19:01:00,71.0,71.0,30.18,North,360,0.0,8.0,100,0.05,,,0.46,Weather View 32 v70,2013-07-01 23:01:00,
2013-07-01 19:06:00,71.0,71.0,30.18,ESE,112,0.0,11.0,100,0.04,,,0.46,Weather View 32 v70,2013-07-01 23:06:00,
2013-07-01 19:11:00,71.0,71.0,30.18,SSW,202,1.0,11.0,100,0.04,,,0.46,Weather View 32 v70,2013-07-01 23:11:00,
2013-07-01 19:16:00,71.0,71.0,30.18,SSE,157,1.0,11.0,100,0.04,,,0.46,Weather View 32 v70,2013-07-01 23:16:00,
2013-07-01 19:21:00,71.0,71.0,30.18,SSE,157,2.0,11.0,100,0.03,,,0.46,Weather View 32 v70,2013-07-01 23:21:00,
2013-07-01 19:26:00,71.0,71.0,30.19,East,90,1.0,11.0,100,0.04,,,0.47,Weather View 32 v70,2013-07-01 23:26:00,
2013-07-01 19:31:00,71.0,71.0,30.19,ESE,112,2.0,11.0,100,0.03,,,0.47,Weather View 32 v70,2013-07-01 23:31:00,
2013-07-01 19:36:00,70.0,70.0,30.19,SSW,202,3.0,11.0,100,0.03,,,0.47,Weather View 32 v70,2013-07-01 23:36:00,
2013-07-01 19:41:00,70.0,70.0,30.19,SSW,202,0.0,11.0,100,0.02,,,0.47,Weather View 32 v70,2013-07-01 23:41:00,
2013-07-01 19:46:00,70.0,70.0,30.20,SSW,202,3.0,11.0,100,0.02,,,0.47,Weather View 32 v70,2013-07-01 23:46:00,
2013-07-01 19:51:00,70.0,70.0,30.20,SW,225,2.0,11.0,100,0.02,,,0.47,Weather View 32 v70,2013-07-01 23:51:00,
2013-07-01 19:56:00,70.0,70.0,30.20,SW,225,2.0,11.0,100,0.01,,,0.47,Weather View 32 v70,2013-07-01 23:56:00,
2013-07-01 20:01:00,70.0,70.0,30.20,SSW,202,1.0,11.0,100,0.01,,,0.47,Weather View 32 v70,2013-07-02 00:01:00,
2013-07-01 20:06:00,70.0,70.0,30.21,SSW,202,2.0,11.0,100,0.01,,,0.47,Weather View 32 v70,2013-07-02 00:06:00,
2013-07-01 20:11:00,70.0,70.0,30.21,SSW,202,2.0,7.0,100,0.01,,,0.47,Weather View 32 v70,2013-07-02 00:11:00,
2013-07-01 20:16:00,70.0,70.0,30.21,SW,225,2.0,7.0,100,0.01,,,0.47,Weather View 32 v70,2013-07-02 00:16:00,
2013-07-01 20:21:00,70.0,70.0,30.21,SW,225,2.0,7.0,100,0.01,,,0.47,Weather View 32 v70,2013-07-02 00:21:00,
2013-07-01 20:26:00,70.0,70.0,30.21,SSW,202,2.0,6.0,100,0.00,,,0.47,Weather View 32 v70,2013-07-02 00:26:00,
2013-07-01 20:31:00,70.0,70.0,30.21,SSE,157,1.0,6.0,100,0.00,,,0.47,Weather View 32 v70,2013-07-02 00:31:00,
2013-07-01 20:36:00,70.0,70.0,30.21,WSW,247,2.0,6.0,100,0.00,,,0.47,Weather View 32 v70,2013-07-02 00:36:00,
2013-07-01 20:41:00,70.0,70.0,30.21,SW,225,1.0,6.0,100,0.00,,,0.47,Weather View 32 v70,2013-07-02 00:41:00,
2013-07-01 20:46:00,70.0,70.0,30.21,NW,315,1.0,6.0,100,0.00,,,0.47,Weather View 32 v70,2013-07-02 00:46:00,
2013-07-01 20:51:00,70.0,70.0,30.21,SW,225,1.0,6.0,100,0.00,,,0.47,Weather View 32 v70,2013-07-02 00:51:00,
2013-07-01 20:56:00,70.0,70.0,30.21,SW,225,3.0,6.0,100,0.00,,,0.47,Weather View 32 v70,2013-07-02 00:56:00,
2013-07-01 21:01:00,70.0,70.0,30.21,SW,225,1.0,6.0,100,0.00,,,0.47,Weather View 32 v70,2013-07-02 01:01:00,
2013-07-01 21:06:00,70.0,70.0,30.21,SSW,202,3.0,6.0,100,0.00,,,0.47,Weather View 32 v70,2013-07-02 01:06:00,
2013-07-01 21:11:00,71.0,71.0,30.21,SW,225,4.0,7.0,100,0.00,,,0.47,Weather View 32 v70,2013-07-02 01:11:00,
2013-07-01 21:16:00,71.0,71.0,30.21,SW,225,3.0,7.0,100,0.00,,,0.47,Weather View 32 v70,2013-07-02 01:16:00,
2013-07-01 21:21:00,71.0,71.0,30.21,SW,225,3.0,7.0,100,0.00,,,0.47,Weather View 32 v70,2013-07-02 01:21:00,
2013-07-01 21:26:00,71.0,71.0,30.21,SW,225,2.0,7.0,100,0.00,,,0.47,Weather View 32 v70,2013-07-02 01:26:00,
2013-07-01 21:31:00,71.0,71.0,30.21,SW,225,4.0,7.0,100,0.00,,,0.47,Weather View 32 v70,2013-07-02 01:31:00,
2013-07-01 21:36:00,71.0,71.0,30.22,SW,225,3.0,7.0,100,0.00,,,0.47,Weather View 32 v70,2013-07-02 01:36:00,
2013-07-01 21:41:00,71.0,71.0,30.22,SW,225,3.0,7.0,100,0.00,,,0.47,Weather View 32 v70,2013-07-02 01:41:00,
2013-07-01 21:46:00,71.0,71.0,30.22,SW,225,1.0,7.0,100,0.00,,,0.47,Weather View 32 v70,2013-07-02 01:46:00,
2013-07-01 21:51:00,71.0,71.0,30.22,SW,225,0.0,7.0,100,0.00,,,0.47,Weather View 32 v70,2013-07-02 01:51:00,
2013-07-01 21:56:00,71.0,71.0,30.22,SW,225,1.0,7.0,100,0.00,,,0.47,Weather View 32 v70,2013-07-02 01:56:00,
2013-07-01 22:01:00,71.0,71.0,30.22,SW,225,1.0,7.0,100,0.00,,,0.47,Weather View 32 v70,2013-07-02 02:01:00,
2013-07-01 22:06:00,71.0,71.0,30.22,SSW,202,1.0,7.0,100,-0.23,,,0.47,Weather View 32 v70,2013-07-02 02:06:00,
2013-07-01 22:12:00,71.0,71.0,30.22,WSW,247,1.0,7.0,100,0.00,,,0.47,Weather View 32 v70,2013-07-02 02:12:00,
2013-07-01 22:17:00,71.0,71.0,30.23,SW,225,4.0,7.0,100,0.00,,,0.47,Weather View 32 v70,2013-07-02 02:17:00,
2013-07-01 22:22:00,71.0,71.0,30.23,SSW,202,1.0,9.0,100,0.00,,,0.47,Weather View 32 v70,2013-07-02 02:22:00,
2013-07-01 22:27:00,71.0,71.0,30.23,SSW,202,3.0,9.0,100,0.00,,,0.47,Weather View 32 v70,2013-07-02 02:27:00,
2013-07-01 22:32:00,71.0,71.0,30.23,SSW,202,4.0,9.0,100,0.00,,,0.47,Weather View 32 v70,2013-07-02 02:32:00,
2013-07-01 22:37:00,71.0,71.0,30.22,SSW,202,5.0,9.0,100,0.00,,,0.47,Weather View 32 v70,2013-07-02 02:37:00,
2013-07-01 22:42:00,71.0,71.0,30.22,SSW,202,3.0,9.0,100,0.00,,,0.47,Weather View 32 v70,2013-07-02 02:42:00,
2013-07-01 22:47:00,71.0,71.0,30.22,SW,225,3.0,9.0,100,0.00,,,0.47,Weather View 32 v70,2013-07-02 02:47:00,
2013-07-01 22:52:00,71.0,71.0,30.22,SW,225,4.0,9.0,100,0.00,,,0.47,Weather View 32 v70,2013-07-02 02:52:00,
2013-07-01 22:57:00,71.0,71.0,30.22,SW,225,3.0,9.0,100,0.00,,,0.47,Weather View 32 v70,2013-07-02 02:57:00,
2013-07-01 23:02:00,71.0,71.0,30.22,SSW,202,2.0,9.0,100,0.00,,,0.47,Weather View 32 v70,2013-07-02 03:02:00,
2013-07-01 23:07:00,71.0,71.0,30.22,SW,225,3.0,9.0,100,0.00,,,0.47,Weather View 32 v70,2013-07-02 03:07:00,
2013-07-01 23:12:00,71.0,71.0,30.22,SSW,202,2.0,9.0,100,0.00,,,0.47,Weather View 32 v70,2013-07-02 03:12:00,
2013-07-01 23:17:00,71.0,71.0,30.22,SW,225,3.0,9.0,100,0.00,,,0.47,Weather View 32 v70,2013-07-02 03:17:00,
2013-07-01 23:22:00,71.0,71.0,30.22,SW,225,3.0,9.0,100,0.00,,,0.47,Weather View 32 v70,2013-07-02 03:22:00,
2013-07-01 23:27:00,71.0,71.0,30.23,SW,225,3.0,9.0,100,0.00,,,0.47,Weather View 32 v70,2013-07-02 03:27:00,
2013-07-01 23:32:00,71.0,71.0,30.23,SW,225,2.0,9.0,100,0.00,,,0.47,Weather View 32 v70,2013-07-02 03:32:00,
2013-07-01 23:37:00,71.0,71.0,30.22,SSW,202,2.0,9.0,100,0.00,,,0.47,Weather View 32 v70,2013-07-02 03:37:00,
2013-07-01 23:42:00,71.0,71.0,30.22,SSW,202,2.0,9.0,100,0.00,,,0.47,Weather View 32 v70,2013-07-02 03:42:00,
2013-07-01 23:47:00,71.0,71.0,30.23,SSW,202,3.0,6.0,100,0.00,,,0.47,Weather View 32 v70,2013-07-02 03:47:00,
2013-07-01 23:52:00,71.0,71.0,30.23,SSW,202,0.0,6.0,100,0.00,,,0.47,Weather View 32 v70,2013-07-02 03:52:00,
2013-07-01 23:57:00,71.0,71.0,30.23,SSW,202,1.0,6.0,100,0.00,,,0.47,Weather View 32 v70,2013-07-02 03:57:00,